Terminal Aerodrome Forecast
Issued by NWS

Home | Current Version | Previous Version | Text Only | Print | Product List | Glossary On
Versions: 1 2 3 4 5 6 7 8 9 10 11 12 13 14 15 16 17 18 19 20 21 22 23 24 25
000
FTUS42 KMHX 051135
TAFPGV
TAF
KPGV 051135Z 0512/0612 20010G15KT P6SM SCT006 SCT090 SCT250
     FM051500 01013G20KT 5SM -SHRA BKN020
     FM051800 01015G25KT 3SM -RA OVC005
     FM052200 01016G23KT 3SM -FZRAPL OVC005
      AMD LTD TO CLD VIS AND WIND=

USA.gov is the U.S. government's official web portal to all federal, state and local government web resources and services.